カタログに戻る

STARLINK-33680

運用中通信VLEO
NORAD 63287·PAYLOAD·🇺🇸 United States

打ち上げ Mar 15, 2025 から Cape Canaveral Space Force Station

Loading…

次のパス (今後24時間)

TLE

最新Source: CelesTrak SupGP

元期: Sep 15, 2026, 03:19 UTC

1 63287C 25053Y   26258.13868056 -.00019787  00000+0 -71684-3 0  2581
2 63287  43.0003 251.5468 0001208 265.5365 356.2333 15.27580839    16

AllMySatでSTARLINK-33680をリアルタイム追跡

Download on the App Store